Airport Information

KYKM - Yakima Air Terminal McAllister Field Airport

KYKM 131253Z AUTO 00000KT 7SM OVC015 M01/M03 A3054 RMK AO2 SLP356 T10061033


  • General Information

  • Coordinates: N 46°34'5"/ W 120°32'38"
  • Location: N/A
  • Surveyed Elevation: 1095 MSL

Operations

Flow Name Active Runways Conditions

Green background denotes normal operations.


Common Frequencies

Callsign Frequency Position Name

More at the Document Center


Charts

Under Construction